Location: Unspecified
(47.1121°N, 116.3927°W)
Time: 07:41:31
(UTC-07:00)

ISS - Pass Details

Date: 27 May 2019
Orbit: 408 x 418 km, 51.6° (Epoch: 19 June)

Event Time Altitude Azimuth Distance (km) Brightness Sun altitude
Rises 22:02:09 0° 291° (WNW) 2,356 1.2 -12.5°
Reaches altitude 10° 22:04:18 10° 298° (WNW) 1,494 0.2 -12.7°
Maximum altitude 22:07:32 44° 13° (NNE) 589 -2.7 -13.1°
Enters shadow 22:10:45 10° 87° (E) 1,488 -1.3 -13.4°
